Theta_e
307 307 306 306 307 308 308 309 309 309 310 312 312 316 321 319 318 323 322 321 320 318 322 325 321 317 318 318 317 317 318 317 317 318 319 319 322 325 325 324 325 324 323 323 322 321 322 323 323 322 322 324 323 324 325 323 326 329 328 327 329 336 336 325 326 341 340 331 334 334 330 336 339 334 337 340 338 345 351 347 346 342 336 341 342 338 351
307 306 306 306 306 307 309 309 309 309 310 310 312 318 321 318 317 322 324 326 323 319 323 327 325 323 320 317 316 316 317 317 318 319 318 320 323 324 325 325 323 324 322 322 323 321 319 322 324 324 324 325 323 324 327 329 328 330 333 332 326 326 332 332 335 341 338 333 339 337 331 335 342 340 340 340 340 346 347 346 349 342 335 340 340 339 353
307 307 306 307 306 306 308 310 309 309 309 310 312 316 320 320 322 324 325 325 323 323 325 324 324 326 323 321 320 320 320 319 319 320 319 321 323 322 324 324 322 323 322 322 323 322 320 322 326 326 323 322 323 325 329 331 329 332 341 343 333 329 337 346 339 329 327 329 330 327 327 331 335 339 339 337 341 344 340 339 341 339 336 338 338 342 355
307 307 307 307 307 306 308 310 309 308 309 310 311 313 319 325 331 331 327 326 324 325 326 323 323 325 324 325 324 321 322 322 321 323 323 322 323 323 324 324 322 322 323 322 322 322 321 322 326 328 325 322 323 324 328 329 331 345 353 347 339 332 333 348 349 335 329 333 334 332 332 325 320 329 336 333 336 343 344 339 337 341 338 336 345 351 346
307 307 307 307 307 307 308 310 309 307 309 310 312 316 320 325 331 330 327 329 329 327 327 326 326 327 327 327 326 323 322 321 321 323 323 323 324 323 323 323 321 322 323 322 322 322 323 323 324 327 327 325 322 322 327 330 341 356 348 338 341 331 319 331 343 334 328 332 334 331 327 321 317 322 329 332 339 342 339 335 339 345 335 332 352 358 339
307 308 308 308 307 307 308 310 308 307 309 311 315 322 324 324 327 326 325 330 331 329 328 328 327 328 327 329 327 323 322 321 321 323 323 323 323 323 324 323 322 324 323 322 324 326 323 322 324 326 328 327 323 322 324 329 344 347 328 331 347 332 319 326 327 323 326 327 326 325 323 322 321 322 326 333 339 338 334 337 345 345 333 335 356 356 342
307 308 308 308 308 308 309 310 308 306 309 314 316 322 325 324 326 327 325 326 328 327 326 327 328 327 329 333 333 326 325 326 324 323 323 324 323 322 323 325 324 325 324 325 330 330 323 322 327 330 329 328 326 327 325 325 334 331 319 328 339 330 331 339 324 317 326 326 323 326 324 321 320 321 327 334 337 337 336 339 347 344 337 346 359 354 348
307 308 308 308 308 308 309 310 309 306 308 315 318 321 323 325 326 327 326 325 326 326 326 326 327 327 328 332 333 328 327 328 326 325 325 327 327 324 324 328 328 325 325 326 329 329 326 326 329 331 330 329 331 331 330 327 326 325 322 326 329 328 336 346 330 318 324 330 327 325 324 322 321 323 326 329 331 332 332 335 341 339 337 347 355 351 349
308 307 307 307 308 308 309 310 309 307 307 313 318 320 320 320 322 324 326 329 329 327 326 325 326 328 329 330 331 328 328 328 326 325 326 327 328 327 326 330 331 328 327 327 326 326 326 326 327 327 325 327 333 333 330 327 324 324 326 325 327 332 334 340 337 324 323 329 324 322 328 328 326 327 327 328 328 326 327 334 339 338 341 345 346 346 351
307 307 307 307 308 308 308 309 310 309 308 310 314 317 317 317 320 322 324 331 333 328 326 327 327 331 331 329 329 328 327 327 326 326 328 325 325 328 328 329 332 333 330 328 328 326 326 326 325 325 323 323 329 331 327 326 325 328 332 327 329 339 338 334 334 326 323 327 324 327 334 328 325 334 334 330 332 331 332 341 346 348 350 344 340 347 358
306 307 307 308 308 308 308 309 310 310 309 309 310 312 313 315 319 321 325 333 335 329 328 330 329 330 329 326 327 327 326 326 326 327 327 325 324 327 329 329 333 336 333 328 328 327 325 325 324 325 326 324 324 325 324 324 327 331 334 329 329 343 345 338 335 325 319 327 334 334 329 322 329 349 346 334 336 340 342 346 350 357 358 350 349 356 359
306 306 307 308 308 308 307 308 309 310 310 309 309 310 311 312 315 321 327 333 333 329 330 330 327 326 327 325 325 326 326 325 325 326 326 325 325 326 328 329 330 333 332 327 328 329 327 328 328 327 327 325 324 325 322 323 326 329 332 330 330 339 339 337 338 328 322 335 343 329 322 327 339 349 342 335 337 344 347 347 347 353 358 361 362 359 355
307 306 306 308 308 308 307 307 309 310 310 309 309 309 310 310 314 320 326 328 330 330 329 328 325 324 325 324 323 324 325 325 325 326 325 325 325 324 326 327 326 327 327 326 334 338 334 335 337 334 333 332 332 331 327 324 324 325 326 326 329 336 337 333 333 328 325 330 329 323 327 339 345 340 336 335 337 341 348 348 345 347 353 360 363 358 356
307 306 305 307 308 308 307 307 309 310 310 310 309 309 310 310 313 319 323 326 328 327 325 327 329 326 323 323 323 323 325 326 326 327 326 325 326 325 324 326 326 324 325 334 345 345 339 341 344 340 341 338 332 333 334 328 323 323 324 325 326 333 338 332 323 322 326 326 325 331 335 336 341 342 336 335 338 343 352 350 344 344 349 355 360 360 359
308 306 306 307 308 308 308 308 309 310 311 310 309 309 310 311 313 316 319 322 325 326 325 327 329 326 323 322 323 325 328 329 328 329 327 325 324 325 325 325 325 323 327 342 350 345 342 342 335 330 331 328 321 325 331 327 323 324 324 326 327 327 333 332 320 321 333 332 327 330 327 326 339 346 336 333 338 343 353 351 345 345 348 352 362 365 362
308 308 307 307 308 308 308 308 309 310 310 310 309 309 311 313 313 315 318 321 324 327 326 323 322 322 323 323 324 326 329 330 331 333 332 328 326 326 325 324 324 323 328 342 351 350 347 340 329 324 328 326 319 322 327 324 324 328 329 329 330 328 335 341 329 325 334 333 326 325 323 327 342 345 334 329 332 343 355 351 347 353 350 349 361 366 360
308 309 308 308 308 308 308 308 310 310 310 310 309 309 311 313 313 313 317 321 324 326 324 319 319 323 326 327 327 328 329 330 331 332 332 329 327 326 324 324 325 324 325 335 347 347 341 335 329 325 330 333 323 320 326 324 320 323 329 332 334 333 341 346 334 326 333 333 327 325 325 327 337 342 338 334 337 346 343 333 340 358 354 348 360 364 359
308 308 309 309 308 308 307 309 310 311 310 310 309 308 310 312 313 313 317 320 323 325 323 319 319 323 326 325 326 327 327 328 331 332 331 331 331 327 324 324 328 329 327 331 339 338 332 333 333 327 331 340 330 322 327 327 320 322 329 333 334 334 339 344 336 331 334 332 325 323 326 333 340 342 342 342 342 341 333 330 345 361 353 349 360 364 359
307 308 309 309 308 307 307 309 310 311 310 309 308 308 309 312 314 313 315 319 322 323 321 319 319 321 321 321 324 325 324 325 329 330 330 332 330 324 324 328 330 331 333 333 335 335 329 330 335 329 328 335 334 326 326 326 325 328 329 327 327 328 329 333 333 332 335 335 330 326 329 340 345 344 347 347 338 337 344 350 354 355 352 351 355 360 359
308 308 308 308 308 307 308 309 310 310 309 308 308 308 309 312 315 315 315 318 320 320 320 318 317 319 318 319 322 324 324 324 327 328 328 329 327 325 332 338 333 332 335 334 333 334 329 329 334 330 324 329 331 327 328 333 338 336 329 327 331 333 330 328 330 334 334 331 329 327 331 341 344 343 348 349 342 348 360 357 346 349 356 354 351 355 357
307 308 308 308 308 308 308 308 309 310 309 308 308 308 309 313 316 315 315 317 318 320 321 318 318 318 318 319 319 319 321 322 323 324 325 327 327 326 330 334 332 330 333 332 332 334 334 336 338 333 331 336 334 326 326 330 336 337 333 331 333 334 331 329 331 337 335 329 330 336 345 352 350 349 353 350 347 356 362 352 347 350 353 352 352 353 352
308 308 308 308 308 308 307 308 309 310 309 309 308 308 309 312 315 315 314 315 317 320 320 319 318 318 317 318 318 318 319 319 319 320 322 324 326 326 325 329 331 331 332 335 337 337 338 341 340 336 338 342 337 332 331 328 328 334 333 327 328 332 338 341 339 337 339 341 344 348 351 349 347 355 360 350 345 351 353 349 350 350 348 352 355 353 350
308 308 307 307 308 307 307 309 310 310 309 309 309 308 308 310 313 313 313 314 317 319 319 317 318 319 319 319 319 319 320 320 320 320 320 321 326 328 328 329 329 330 335 339 338 337 337 340 339 337 339 340 335 336 339 333 330 336 335 331 334 340 345 349 345 335 334 340 344 343 342 341 343 351 355 346 341 345 347 347 350 351 350 354 356 355 353
308 308 307 307 308 308 308 309 309 309 309 309 309 308 307 308 310 311 313 315 317 320 320 319 320 323 323 321 320 320 321 321 321 321 320 321 324 327 329 329 325 327 334 335 333 335 338 339 339 337 340 342 336 334 337 334 332 336 337 338 341 342 341 345 343 334 329 332 337 338 339 342 345 348 349 348 346 346 349 353 356 355 353 354 354 354 351
308 308 308 308 309 309 309 309 309 309 309 309 309 308 307 307 309 311 312 315 316 318 320 320 320 320 320 320 319 319 320 320 319 319 319 320 321 321 324 325 322 323 328 328 328 332 336 338 339 337 339 342 338 335 337 336 334 334 333 336 338 335 333 338 339 336 334 335 339 341 341 342 345 346 347 350 350 348 351 356 357 353 351 350 348 348 348
308 308 308 309 309 309 309 309 309 309 309 309 309 308 307 307 309 310 311 313 316 317 319 320 320 318 318 319 318 316 317 317 318 318 318 319 320 320 320 321 320 320 324 326 326 328 332 336 336 335 338 340 337 334 334 335 334 332 331 338 340 332 329 334 336 336 339 338 337 341 342 342 343 345 346 348 349 349 351 354 354 351 349 348 345 343 344
308 307 307 308 309 309 309 309 309 310 310 309 308 308 307 307 309 310 310 313 316 318 320 320 320 318 316 316 316 315 317 318 319 320 319 319 320 320 319 320 322 322 323 325 327 328 331 333 334 337 340 339 335 333 334 336 336 332 333 343 344 332 330 337 335 334 341 344 342 343 345 343 341 342 344 346 349 353 353 352 352 350 349 349 348 343 340
308 307 307 308 309 309 309 310 310 310 310 308 307 307 307 308 309 309 310 311 314 317 319 318 317 317 317 317 316 316 317 318 317 319 320 319 320 320 318 320 323 324 324 326 329 330 330 332 336 339 337 333 333 336 337 337 333 329 334 346 347 337 339 346 344 341 345 350 349 347 348 347 343 340 341 344 348 353 354 351 350 351 350 349 349 346 342
309 309 309 309 310 310 310 310 310 309 309 308 307 307 308 310 310 310 310 311 312 314 316 317 318 319 321 320 317 316 317 317 318 318 318 319 319 319 318 320 324 327 328 328 330 330 330 333 336 335 330 329 332 335 335 334 333 334 339 345 347 346 347 349 350 348 345 344 344 344 344 345 342 339 342 344 345 348 351 349 349 351 348 346 346 345 341
309 309 309 309 310 309 309 308 309 308 308 308 307 308 312 314 313 311 311 312 312 314 316 318 319 320 319 319 318 318 318 318 319 318 317 318 319 319 318 320 324 327 328 329 331 329 329 331 331 330 329 330 330 332 333 332 335 341 343 339 340 343 343 340 342 345 344 342 341 339 340 342 340 338 341 342 340 341 346 345 345 346 342 339 341 341 336
309 309 309 308 308 308 308 308 308 307 307 307 307 309 315 318 315 313 312 313 314 315 316 317 319 319 319 319 319 319 320 319 320 319 318 317 318 318 317 320 324 325 326 330 331 329 329 331 330 330 334 335 333 335 336 331 332 340 344 342 343 344 341 339 341 342 342 340 338 336 336 337 338 340 341 340 337 338 342 342 341 339 336 333 334 336 333
308 308 308 307 307 307 307 307 308 307 307 307 307 309 312 315 314 314 314 314 314 316 317 318 319 320 321 322 320 318 319 319 320 321 320 319 319 320 319 321 326 328 328 330 330 330 332 333 331 331 336 338 335 335 335 331 333 342 347 347 348 346 341 339 340 339 337 336 337 339 338 337 340 343 342 338 336 335 336 337 335 333 332 331 331 331 331
308 308 307 307 307 306 306 307 307 307 307 307 307 308 309 310 312 314 313 312 313 316 319 320 320 321 322 323 321 319 319 321 323 325 325 325 323 322 323 325 327 327 327 327 330 332 332 331 332 332 335 338 338 336 335 335 338 343 346 346 347 345 342 342 342 338 335 335 338 341 342 340 339 338 335 334 334 332 332 332 331 329 330 331 331 331 330
309 309 308 308 307 307 307 307 307 306 307 307 307 309 310 310 312 313 312 311 312 316 319 320 322 322 323 323 325 324 321 323 328 329 329 329 326 322 327 333 330 326 325 325 328 331 329 330 335 338 336 337 337 336 336 338 338 338 341 344 346 344 343 344 343 339 338 340 340 339 339 337 335 333 333 334 334 332 331 330 329 329 330 330 330 330 329
307 308 308 308 307 307 307 307 306 307 307 308 309 311 313 313 313 313 312 312 315 320 321 320 320 322 324 325 327 327 321 323 329 329 327 329 330 329 334 335 330 327 328 326 326 330 332 332 335 337 336 336 336 334 335 338 338 337 340 345 346 343 341 342 344 343 342 341 339 336 334 334 335 334 334 334 333 333 332 330 328 328 328 329 328 327 326
306 307 307 307 307 307 307 307 307 307 308 309 311 312 314 314 313 312 312 313 315 319 322 321 321 323 325 325 326 324 321 326 333 333 329 331 334 336 339 337 332 333 334 331 328 332 335 333 333 335 334 334 335 336 338 339 338 338 340 343 342 340 339 341 343 343 339 337 336 335 334 334 334 334 333 333 333 332 332 330 329 329 329 329 329 328 327
306 306 306 307 307 308 308 308 308 308 310 312 313 313 313 314 314 313 312 313 315 316 318 320 321 322 322 323 324 323 321 326 331 332 332 333 334 335 338 338 336 336 336 334 334 335 334 332 334 335 335 335 337 340 342 340 338 339 341 341 339 341 344 344 341 339 337 336 336 335 334 333 333 333 332 332 332 331 331 330 329 329 329 329 329 328 328
306 306 307 307 308 310 311 311 311 311 313 313 314 315 316 316 316 316 315 315 317 318 318 318 319 318 318 320 321 320 321 325 327 327 329 332 334 334 336 336 333 332 333 336 336 335 333 333 334 335 336 336 336 338 340 338 337 339 342 341 340 341 343 341 337 336 337 337 336 336 334 333 333 333 332 332 332 331 330 329 327 326 327 328 328 328 328
306 307 307 308 308 311 313 314 313 314 314 313 314 317 318 317 318 320 318 317 318 319 319 318 319 318 318 320 320 317 318 321 323 323 327 331 331 332 334 333 330 330 333 335 333 331 334 337 337 335 335 335 332 332 335 336 336 338 341 341 339 340 341 338 335 335 337 336 335 335 334 333 332 332 331 331 331 331 329 327 326 326 327 327 327 327 327
306 307 309 309 310 311 312 312 312 314 314 314 315 317 318 318 320 321 320 319 320 321 320 320 320 318 318 319 320 320 318 319 322 327 332 332 329 329 333 332 329 330 333 334 332 330 334 337 336 334 335 336 333 331 333 334 335 337 339 339 339 341 341 339 334 332 333 334 333 331 330 330 331 330 330 330 330 330 329 327 326 327 327 327 327 327 326
308 308 309 310 310 310 311 311 313 315 316 317 318 319 319 320 321 320 320 322 323 322 321 321 322 322 320 319 320 320 321 321 325 331 335 333 330 330 332 330 327 329 332 334 335 334 334 334 335 336 338 340 337 334 333 333 335 338 339 339 339 341 341 340 335 330 332 338 338 332 329 328 328 327 327 328 328 328 328 327 326 327 327 327 326 326 326
308 308 309 309 309 310 311 313 315 317 317 318 319 320 320 320 320 321 321 323 324 323 322 322 325 327 325 320 319 322 324 324 327 331 333 331 329 331 333 330 327 329 332 333 334 335 334 333 334 337 340 341 339 337 336 335 336 338 340 340 341 341 341 343 340 334 331 334 336 332 328 327 327 327 326 326 326 326 326 326 326 326 326 327 326 326 326
308 308 309 309 310 312 314 316 317 317 318 319 320 321 321 321 321 321 321 321 322 323 325 325 329 332 330 324 323 325 325 325 328 332 333 330 328 331 332 330 329 331 333 332 332 333 334 334 335 337 339 341 343 344 342 337 334 336 339 339 338 337 336 338 339 335 330 328 330 330 328 327 327 326 326 325 326 327 326 326 327 326 326 326 326 326 326
308 309 310 311 312 314 316 317 317 318 320 320 320 321 324 324 323 322 323 324 325 327 329 329 330 333 333 331 329 328 326 327 330 331 331 330 330 330 331 331 332 333 333 332 332 333 333 334 336 336 337 339 343 347 349 344 337 336 338 339 337 336 335 336 336 335 333 331 330 329 329 327 326 326 325 325 326 327 326 326 327 326 326 326 326 326 326
309 311 312 313 314 315 316 317 318 319 320 320 319 320 323 324 323 322 324 327 329 330 330 331 332 333 332 331 332 332 329 329 329 328 327 329 331 330 330 332 333 332 330 331 333 332 332 335 338 337 336 339 342 346 350 348 341 337 338 340 340 339 339 339 338 338 337 335 332 329 328 327 326 325 324 324 325 327 327 326 326 326 326 326 326 326 326
310 311 312 313 314 315 315 317 319 320 319 320 320 321 322 322 321 321 324 327 329 331 331 331 333 334 332 330 331 333 331 329 328 326 325 327 330 330 329 330 330 329 329 331 331 330 331 335 338 338 338 340 343 346 349 348 342 338 338 340 339 338 337 338 338 337 335 332 329 329 328 327 326 324 323 323 325 326 326 326 326 325 325 325 325 326 326
310 311 312 314 314 315 315 316 318 319 320 320 321 322 321 319 319 322 325 326 328 330 332 331 332 333 332 329 328 330 330 330 330 329 327 326 328 329 329 329 329 329 330 330 330 331 335 339 342 342 342 342 342 343 344 343 339 337 338 339 339 338 337 337 338 337 332 329 329 329 328 327 326 324 323 322 324 325 326 326 326 324 324 325 325 326 326
310 311 313 314 314 315 316 316 317 317 317 317 317 319 320 321 322 325 327 328 328 331 333 333 332 333 332 331 330 331 330 329 330 331 330 329 330 330 329 329 329 329 329 329 330 332 335 337 336 336 338 341 343 342 342 341 338 336 336 337 338 338 338 338 337 335 331 329 329 329 328 327 326 324 322 322 323 324 325 326 326 324 324 325 325 326 326
309 310 312 313 314 315 316 316 316 316 316 316 317 319 323 326 329 329 328 330 332 333 331 331 331 332 331 330 330 330 329 328 328 327 327 328 329 329 329 329 329 328 328 329 331 332 331 330 330 330 332 336 341 343 342 341 339 338 337 336 335 335 336 336 334 332 330 329 328 328 329 329 327 324 322 322 322 323 325 326 326 325 325 325 325 326 326
309 310 311 312 313 315 316 316 317 317 317 317 318 320 322 325 330 330 328 328 331 331 328 328 330 330 329 328 327 327 328 329 328 327 327 328 328 327 327 328 329 330 330 331 333 334 331 330 334 335 332 330 333 338 340 339 339 340 339 335 330 329 332 333 331 330 331 330 328 328 330 330 327 325 323 322 322 324 325 326 325 326 326 325 326 326 326
309 310 311 311 312 314 314 315 315 316 315 314 316 319 321 323 327 328 326 326 328 330 329 327 328 327 327 327 327 325 324 326 327 328 329 329 327 326 328 331 333 334 333 332 333 334 331 331 336 340 336 330 332 336 338 338 337 336 334 330 327 328 331 331 330 330 331 331 330 329 329 328 327 326 325 324 323 324 325 326 326 327 326 326 326 326 326
309 310 311 312 312 312 312 312 313 314 313 313 316 320 323 325 327 326 325 325 328 329 327 326 326 325 325 326 326 324 323 325 327 328 329 329 327 329 334 338 338 337 335 334 334 334 332 332 336 339 337 334 335 337 337 338 338 335 331 328 327 328 329 329 330 331 331 331 330 329 328 327 327 328 326 325 325 325 325 326 327 328 327 326 326 326 326
Wind_Speed
23 24 24 24 25 24 25 27 29 32 34 31 27 15 3 2 4 9 4 4 6 1 2 3 2 2 4 4 5 5 5 6 7 8 8 6 5 3 2 1 2 2 2 1 1 2 2 1 3 1 1 3 3 5 6 7 6 5 2 1 1 1 3 3 2 4 4 6 5 4 5 5 5 2 3 4 3 4 5 4 3 3 2 1 2 0 4
22 23 24 24 24 24 24 25 26 28 30 29 23 9 1 2 4 6 7 4 5 2 1 2 3 4 4 5 6 6 6 7 8 8 8 6 3 2 2 2 2 2 2 1 2 2 1 0 3 2 1 1 2 2 7 7 4 3 2 2 2 1 1 3 3 4 5 5 6 5 5 3 2 1 2 4 6 6 4 2 3 2 3 4 3 2 5
21 23 23 22 23 23 23 24 25 25 26 27 18 4 2 4 2 4 9 8 1 5 3 2 3 4 4 6 7 6 6 7 8 9 9 8 5 2 3 3 2 2 2 2 2 2 2 2 0 2 2 1 1 3 7 7 4 3 5 6 5 3 2 4 4 3 1 1 1 2 2 2 1 1 3 5 8 9 5 2 3 1 3 4 4 4 5
21 22 22 21 22 22 22 23 24 23 24 25 17 6 2 3 1 3 6 6 2 1 2 3 3 4 5 6 7 6 6 5 6 7 7 8 8 4 3 3 2 2 2 1 2 2 2 1 0 1 3 1 1 4 6 6 6 7 9 7 5 3 2 3 6 6 5 6 6 5 2 1 3 3 5 6 8 8 6 4 3 3 3 3 4 5 3
20 21 21 21 21 21 21 22 23 22 22 22 15 6 1 1 2 3 3 3 3 4 4 5 5 5 5 4 6 9 8 6 5 5 5 7 8 4 2 3 2 1 2 1 2 4 3 2 1 1 3 3 4 6 5 5 9 11 9 5 5 4 1 1 6 7 7 8 7 6 3 3 5 5 6 8 8 8 7 5 5 5 6 3 6 6 4
20 20 20 20 20 20 20 21 22 22 21 18 9 3 1 0 1 3 3 2 2 3 5 7 8 9 7 4 6 9 8 6 5 4 5 8 6 3 1 4 5 4 3 1 1 3 4 3 3 1 0 1 3 2 3 1 8 9 5 2 5 5 1 4 4 3 4 5 5 4 2 3 6 5 6 9 9 10 10 7 6 9 7 5 6 8 7
19 19 19 19 20 20 20 21 22 21 19 13 5 3 2 2 2 2 3 2 2 3 7 8 9 9 7 4 5 6 6 6 5 4 5 7 5 3 2 4 5 4 3 4 1 2 2 3 3 2 2 1 3 2 2 2 2 4 4 1 3 4 2 4 3 2 5 5 4 4 5 4 6 6 5 9 11 12 10 7 8 10 6 4 6 9 7
18 19 18 18 19 19 19 20 21 21 18 10 2 1 2 2 2 2 2 2 3 4 5 6 6 7 5 3 5 6 5 6 8 7 5 5 5 1 1 5 8 8 2 5 1 3 3 2 4 2 2 1 2 3 3 3 1 3 3 1 1 3 2 3 3 1 5 6 5 6 6 4 5 8 5 7 10 8 5 4 7 6 1 1 6 6 3
17 18 17 17 17 18 17 18 20 20 17 10 3 3 5 4 5 4 1 2 3 3 3 4 4 5 4 3 6 7 7 6 8 8 6 5 4 2 3 5 7 8 6 7 5 7 1 3 3 4 2 2 4 4 4 6 4 3 4 2 2 3 1 0 5 4 4 4 4 5 5 5 6 7 6 1 6 4 0 2 5 5 4 5 6 4 3
16 17 16 16 16 17 16 16 18 19 17 12 5 5 8 7 6 4 1 1 3 3 3 4 3 3 3 6 8 9 9 8 6 5 5 7 7 2 4 5 5 5 8 8 7 9 1 4 2 4 2 1 2 3 5 9 8 5 4 3 2 4 3 2 4 3 3 4 2 2 3 6 4 3 2 1 4 5 5 5 4 2 5 7 5 4 5
15 15 15 15 15 16 15 13 15 16 16 14 7 6 8 8 5 4 2 1 3 3 3 3 2 3 7 10 10 9 11 11 7 4 4 7 8 4 5 7 4 2 2 2 6 8 6 5 2 1 3 5 4 2 4 8 7 6 6 4 1 3 5 3 3 4 3 6 3 4 4 3 4 6 3 3 6 10 9 5 5 4 3 5 4 3 5
16 14 14 14 14 15 14 11 12 13 13 13 10 7 8 9 7 4 2 1 3 3 2 3 3 6 10 11 10 10 11 11 7 5 4 6 7 5 5 7 6 4 5 4 4 5 4 2 3 6 7 7 6 4 1 4 4 4 7 8 5 4 5 3 2 4 2 2 5 5 2 5 7 6 1 4 10 15 12 7 6 5 4 7 6 5 7
16 14 13 13 13 14 14 10 9 10 11 12 13 11 9 9 6 3 1 1 2 2 2 5 7 8 11 11 10 11 10 9 7 5 6 7 8 8 8 8 7 7 8 5 5 6 3 3 4 5 6 7 7 6 4 2 2 3 4 6 8 7 5 3 2 3 2 2 4 1 5 6 6 5 2 6 8 11 11 8 6 4 0 5 6 4 4
15 13 12 12 13 14 13 9 7 9 10 12 14 14 11 6 4 4 2 1 2 2 2 5 7 7 9 11 10 10 10 9 8 7 5 5 7 8 9 8 8 9 6 3 6 5 3 2 4 4 5 6 5 4 5 4 2 1 5 5 7 8 6 3 2 2 2 3 2 2 3 5 7 5 1 4 4 5 7 5 2 4 2 4 6 4 3
14 13 12 12 12 13 12 9 6 8 10 11 14 15 11 6 5 5 3 0 1 3 2 2 2 6 8 10 9 8 7 7 7 6 4 3 4 5 6 8 10 10 5 4 4 3 2 2 3 2 3 2 1 3 4 3 4 3 0 2 3 5 4 5 4 2 2 5 2 2 3 2 5 5 5 3 4 8 8 6 1 4 3 5 6 5 5
14 14 13 12 12 12 11 8 6 8 9 11 15 15 9 4 4 6 5 1 1 2 3 0 3 5 6 7 7 6 5 5 6 5 4 5 6 6 7 8 9 10 8 4 2 3 3 2 2 2 1 1 1 3 3 2 3 4 5 6 8 7 3 4 5 2 2 5 3 2 2 3 6 5 5 6 2 6 7 6 3 5 5 5 6 5 6
15 14 13 12 12 11 10 7 7 8 9 10 14 15 8 3 2 6 4 1 1 3 4 4 5 4 3 3 5 4 3 4 4 3 3 4 5 7 9 10 9 10 9 4 1 3 4 2 2 2 2 2 1 1 3 2 2 4 4 6 8 7 5 4 5 3 2 4 3 2 2 3 4 4 5 5 2 4 8 3 5 6 5 6 6 6 6
16 14 13 12 11 10 8 7 7 7 8 10 13 15 10 3 2 6 3 1 0 3 5 5 5 3 2 3 4 3 3 4 3 3 4 3 3 6 8 7 7 7 6 4 2 2 3 2 1 2 2 3 1 1 3 3 2 3 1 3 4 4 3 3 4 3 3 4 2 2 2 3 4 5 6 4 2 6 5 4 6 4 5 5 5 6 5
15 14 12 11 10 8 6 7 8 6 7 10 12 13 10 4 2 5 4 1 1 3 5 9 7 4 4 5 4 3 3 4 2 2 3 3 4 8 7 3 3 4 3 4 2 0 2 2 2 3 1 2 1 1 2 3 3 2 1 2 2 2 2 2 2 3 3 3 3 0 3 4 5 5 5 3 4 1 4 6 3 3 5 5 4 5 5
14 12 11 10 9 7 6 7 7 6 7 10 11 13 10 3 1 5 4 3 2 3 8 11 11 10 7 4 3 3 4 3 1 1 2 2 5 7 4 2 3 4 3 3 3 2 1 1 1 1 2 2 1 1 2 4 4 2 0 1 2 3 3 1 2 3 2 2 3 2 2 5 4 3 2 3 2 4 5 2 2 2 4 4 4 4 5
13 12 10 9 8 7 6 7 8 6 7 8 10 12 9 1 3 6 6 5 4 2 5 9 10 10 11 10 11 11 8 7 5 2 2 3 4 3 2 1 3 2 2 2 2 2 1 1 2 1 0 0 1 0 1 3 5 3 3 2 1 2 3 2 3 3 3 3 2 3 4 6 3 4 2 3 4 5 5 4 2 2 3 4 4 4 5
12 11 9 8 8 7 6 7 7 6 6 7 9 10 9 5 2 6 9 8 6 6 11 17 19 22 25 26 26 24 23 21 17 11 5 3 3 2 2 2 3 2 1 2 1 1 2 1 1 2 2 1 2 2 1 1 2 4 1 1 2 3 4 4 3 2 3 4 5 5 4 3 2 3 5 4 3 3 5 6 4 2 3 3 4 5 5
12 11 9 8 7 6 5 5 5 4 5 8 8 8 10 11 8 8 10 8 6 9 18 24 23 21 22 23 21 21 23 25 25 22 14 6 2 2 3 2 2 2 1 2 2 1 1 0 1 1 1 1 1 2 2 1 1 3 2 1 3 4 2 3 3 1 2 1 1 2 4 4 3 3 4 4 4 2 4 6 5 3 4 4 4 5 5
11 10 8 6 5 5 5 5 5 5 6 9 9 9 12 13 9 10 10 5 2 4 9 11 9 7 9 13 16 18 17 16 18 20 19 13 6 3 2 3 1 1 2 2 1 1 0 1 1 1 0 2 0 1 1 1 1 1 1 2 3 4 3 3 3 2 2 1 1 2 5 6 5 6 5 5 5 3 4 6 5 5 5 4 5 5 5
10 8 7 6 6 6 6 6 5 6 8 9 9 10 11 10 6 6 7 4 2 2 3 3 5 8 11 16 19 18 15 13 14 16 17 17 14 8 5 6 4 2 2 2 1 3 2 1 0 1 1 2 1 1 1 1 2 1 1 1 3 2 1 2 1 2 2 1 1 5 7 5 4 5 5 4 5 5 4 4 5 5 4 3 4 5 5
9 8 7 6 7 6 6 5 6 7 8 9 10 10 11 10 8 6 7 6 3 3 3 3 6 9 16 19 20 19 17 17 18 17 16 16 18 18 13 7 5 3 2 2 2 1 1 1 1 1 2 2 1 1 1 2 2 1 0 3 3 0 1 1 1 3 3 2 3 6 8 6 6 5 3 2 4 5 4 4 5 5 5 4 3 4 4
9 7 7 7 7 7 6 5 6 7 8 10 11 11 11 13 11 8 8 7 3 2 2 3 4 11 17 19 22 22 19 18 18 18 19 19 17 20 17 8 3 3 1 1 0 1 2 1 1 2 3 2 2 2 2 3 2 0 2 5 2 2 1 1 2 3 2 2 3 4 6 3 0 1 2 2 4 6 6 5 4 4 5 5 5 4 3
7 6 7 7 6 6 6 6 7 8 10 11 11 11 13 15 13 11 11 9 5 3 2 3 6 11 14 16 19 21 20 19 18 16 18 17 11 13 12 7 4 3 2 2 1 1 2 2 2 2 2 2 1 2 3 2 1 2 4 5 2 2 3 3 4 3 4 6 6 5 6 5 4 3 2 2 4 6 7 5 4 4 4 5 6 6 5
5 6 7 6 4 4 6 7 8 8 9 10 11 12 12 11 9 10 11 10 8 5 3 4 5 6 7 12 18 21 21 19 17 15 15 14 9 7 6 4 4 4 3 3 2 2 3 3 2 2 2 2 1 2 2 1 2 4 5 6 5 4 5 6 7 5 3 4 5 5 6 5 5 4 3 4 4 6 6 4 3 3 3 4 5 5 6
5 6 6 5 4 5 6 7 7 6 7 7 7 7 5 2 0 5 9 8 7 6 2 2 3 4 5 9 12 15 18 18 16 14 12 9 6 6 7 6 5 3 3 2 2 3 3 2 2 2 2 2 2 2 2 2 3 4 6 7 6 4 4 7 7 6 4 4 5 5 7 7 6 5 5 4 4 6 5 4 3 4 5 5 5 4 6
6 6 6 5 5 6 7 7 6 6 7 6 3 1 1 1 2 5 7 5 5 5 2 2 3 4 5 5 6 10 15 16 13 10 9 7 6 8 10 9 5 3 4 3 2 3 3 2 2 2 2 0 2 2 2 2 3 5 5 6 5 4 5 7 6 6 7 7 6 7 8 7 6 5 5 4 4 6 5 3 4 7 8 7 7 6 7
6 6 6 6 6 6 7 7 7 7 9 8 7 7 7 4 4 8 7 1 2 3 2 2 3 3 3 4 6 10 14 13 8 5 4 5 6 6 7 7 4 4 5 4 2 2 3 3 3 3 3 1 1 1 1 2 3 5 6 4 2 2 3 4 5 6 10 11 10 8 5 3 3 4 5 4 5 7 6 4 7 11 12 11 10 11 11
7 7 8 8 8 8 7 7 7 9 10 11 15 18 17 12 9 9 5 3 5 3 2 2 2 3 3 4 7 8 7 6 4 2 3 4 4 3 4 4 3 3 4 4 2 2 2 3 3 3 3 2 2 1 2 4 5 6 6 4 2 3 2 2 3 4 7 8 8 7 7 6 4 6 7 7 7 8 7 8 9 11 11 10 8 8 10
7 8 9 9 10 9 9 8 8 9 9 10 14 15 10 7 8 11 11 7 4 3 2 1 1 3 3 3 5 6 5 4 2 2 3 3 3 4 3 1 1 1 3 3 2 2 1 2 3 2 2 1 2 2 3 5 6 5 5 4 2 4 4 4 4 3 4 3 2 5 8 9 8 8 8 7 7 8 8 10 10 9 8 7 5 6 8
7 8 10 11 11 11 11 9 8 7 6 8 11 10 7 3 6 13 16 11 3 1 2 2 1 2 3 3 3 6 6 5 2 2 2 2 1 1 1 2 2 1 2 2 1 1 2 2 3 2 2 2 2 3 4 5 5 6 5 5 4 4 5 4 5 5 4 3 6 8 10 11 10 9 8 7 7 7 7 7 8 8 8 6 5 6 7
9 9 10 11 10 9 9 7 7 6 5 6 7 7 5 1 7 13 17 12 4 1 2 1 1 2 1 1 3 5 7 5 2 2 1 1 2 2 2 3 1 2 1 1 1 2 2 1 1 2 3 3 3 5 5 5 6 7 7 7 7 7 6 6 7 5 4 6 10 10 10 10 10 8 7 7 6 6 7 7 8 9 8 7 6 6 6
8 8 9 8 6 6 5 5 6 6 4 2 2 4 6 9 9 8 9 7 4 4 2 1 2 3 1 1 3 4 5 3 2 3 3 1 1 2 2 3 1 2 1 1 1 2 1 0 1 2 4 4 5 6 6 6 7 8 7 7 7 7 7 7 8 9 8 8 9 8 7 8 8 7 8 8 7 7 8 8 8 8 9 8 7 7 8
7 7 7 5 3 3 2 2 3 6 5 2 2 2 4 5 4 3 3 3 3 4 2 1 3 3 1 3 4 2 3 3 3 4 2 1 1 2 2 2 1 1 2 2 3 2 2 1 1 3 4 4 5 6 7 7 7 7 7 7 7 6 6 7 9 12 11 8 7 7 7 8 8 7 8 8 8 7 7 6 6 8 9 8 8 10 12
5 5 4 3 2 3 2 4 5 3 5 4 2 2 1 2 2 2 2 2 3 2 2 3 4 3 4 5 5 3 2 2 2 3 3 1 1 1 1 1 1 1 1 2 3 2 1 1 2 2 3 4 5 7 8 7 7 7 6 7 5 5 6 6 9 13 13 12 12 13 12 12 12 10 8 7 7 7 6 6 7 9 10 11 12 13 12
4 3 3 2 1 4 9 10 7 1 4 3 1 2 1 1 2 2 2 2 2 2 2 4 3 3 6 6 5 4 4 4 2 2 3 1 0 0 1 0 1 0 0 2 3 1 2 1 2 2 3 4 5 7 8 8 8 7 7 7 7 8 9 8 8 10 10 9 10 11 11 11 12 12 10 9 9 8 7 7 9 11 13 13 13 14 14
2 2 2 4 7 11 15 12 4 3 3 1 1 2 1 1 2 2 1 2 2 2 3 3 2 2 5 6 4 4 5 5 3 2 2 0 1 0 2 0 1 0 1 3 2 1 1 1 2 3 4 5 6 7 7 7 8 7 7 7 7 9 10 9 9 9 9 8 7 8 10 12 13 12 13 12 11 9 9 9 10 13 15 15 15 16 18
5 6 8 11 13 12 10 5 1 3 1 0 1 1 1 2 2 2 1 2 3 2 2 3 3 3 4 5 5 3 3 3 1 1 2 0 1 0 2 1 0 0 2 3 1 2 1 2 3 4 5 5 6 7 6 7 7 8 8 8 8 8 9 9 9 9 11 10 8 8 11 15 15 15 17 17 14 12 13 14 14 15 16 17 18 19 20
8 8 8 8 7 4 2 1 1 2 1 1 1 1 2 1 1 1 2 2 2 2 1 2 2 1 1 2 3 2 2 1 0 1 1 1 0 1 1 1 0 1 3 1 1 1 1 3 3 5 5 5 6 6 6 7 8 8 8 8 8 10 12 12 10 10 12 13 13 13 16 17 17 19 22 22 18 15 15 16 18 18 19 20 20 20 21
6 3 2 2 2 1 0 0 1 2 2 2 2 1 1 2 2 2 2 2 1 1 2 2 1 1 0 1 0 0 1 1 1 1 1 1 0 1 1 1 2 2 1 1 0 2 3 3 4 5 5 5 5 6 6 6 7 7 6 6 8 10 11 11 10 9 9 10 12 15 17 17 18 19 21 23 22 19 17 17 19 20 21 21 21 21 21
3 1 1 1 2 1 1 0 1 1 2 2 2 2 3 3 2 2 3 2 1 1 2 2 1 3 1 1 1 1 1 1 1 1 0 0 0 0 1 2 2 0 0 1 2 2 2 3 4 5 6 7 6 5 4 5 6 6 6 6 8 9 9 9 9 8 7 7 10 12 14 16 17 18 18 21 24 24 22 21 22 23 23 22 21 20 21
1 1 1 1 1 1 0 1 1 1 2 2 3 4 4 4 4 4 2 1 0 1 2 2 1 2 2 1 0 1 1 1 1 1 0 1 0 1 1 1 0 0 0 2 3 3 4 5 5 5 5 6 5 2 1 3 4 5 6 8 9 9 9 9 8 8 8 9 11 11 13 16 19 19 18 21 24 25 26 27 27 27 25 23 22 22 22
1 1 1 1 1 2 1 1 2 2 2 2 3 4 5 5 4 3 1 0 1 2 2 1 1 1 1 1 1 1 1 1 1 1 0 1 0 1 1 1 0 1 2 2 4 4 4 5 4 5 5 3 1 2 3 2 4 6 6 7 8 8 8 8 8 7 8 10 10 10 12 16 19 20 20 21 22 24 27 29 30 30 28 25 24 25 24
1 1 1 1 1 2 2 2 3 4 4 3 3 3 3 2 0 1 2 1 0 0 1 1 2 1 1 1 1 1 1 1 1 1 0 1 1 1 1 0 2 2 1 2 4 4 4 4 5 6 6 3 1 1 3 1 3 5 5 6 8 8 8 8 7 8 9 10 10 8 10 15 19 21 22 21 21 24 28 31 31 31 28 26 25 25 24
2 1 1 1 1 2 3 3 3 3 4 3 2 3 3 2 1 3 3 1 1 1 1 2 2 1 0 1 1 1 0 1 1 1 0 1 1 1 1 1 2 2 2 2 3 3 4 4 4 7 9 7 2 1 1 1 2 3 3 5 6 7 7 7 8 9 11 12 11 10 11 14 18 20 22 21 20 23 27 30 31 31 29 28 27 25 23
2 1 1 2 2 2 3 2 2 3 4 4 3 2 2 2 3 4 2 1 1 1 2 2 2 1 0 1 1 1 2 2 2 2 1 1 2 2 2 2 3 3 3 3 3 3 3 3 2 4 6 9 7 3 2 1 0 1 3 5 5 7 8 9 10 11 12 14 14 15 14 14 14 17 20 23 24 26 27 29 30 30 29 30 29 27 25
1 1 2 3 3 3 3 2 2 3 5 5 5 3 2 2 3 3 2 1 1 2 2 1 1 1 2 1 1 0 1 1 1 2 2 2 2 2 2 3 4 4 4 4 4 4 3 3 1 2 1 6 8 6 3 3 2 3 4 4 6 9 10 11 11 12 13 15 17 16 14 13 13 14 16 21 26 26 23 23 27 29 29 29 30 29 27
1 1 2 3 4 3 4 4 3 4 5 5 5 3 2 2 3 3 1 2 2 1 1 1 1 2 1 1 1 0 0 0 1 2 2 2 2 2 3 4 4 4 4 4 4 4 3 3 3 3 3 5 6 5 4 4 4 4 5 6 7 8 9 10 11 13 13 14 15 15 15 17 20 20 18 18 19 18 15 17 23 28 28 28 29 29 27
Wind_Direction
342 343 345 345 346 348 351 355 358 358 357 357 359 356 345 43 301 281 294 213 219 55 39 282 286 230 244 246 250 259 264 270 279 286 285 279 276 273 249 226 243 230 182 154 1 332 294 139 107 122 147 128 177 197 151 108 90 86 72 305 305 73 74 66 325 303 307 315 340 64 92 87 83 91 135 129 131 136 143 169 170 136 157 149 87 240 271
342 343 345 345 347 347 350 356 359 1 2 358 355 353 322 315 275 279 320 297 215 198 247 253 264 264 269 276 265 255 255 262 266 272 276 277 282 291 283 275 249 243 232 199 210 229 269 49 114 135 144 159 230 169 108 100 92 106 156 172 107 72 72 82 49 357 353 349 351 356 356 32 97 182 176 137 119 112 113 120 88 85 200 156 117 236 260
342 343 344 345 345 346 349 353 357 0 360 355 350 335 268 319 253 251 319 333 204 189 208 208 258 290 309 295 282 277 269 260 257 262 267 262 248 239 267 274 264 250 257 265 233 199 206 250 227 121 111 38 337 85 101 108 105 125 164 150 114 126 152 112 107 120 145 191 252 270 289 311 330 218 188 146 131 130 130 110 91 105 215 150 139 217 260
340 341 343 344 344 345 347 350 354 357 356 351 342 310 262 6 3 278 320 343 7 250 316 14 343 319 327 311 294 281 273 276 273 268 272 265 247 215 205 248 274 265 239 269 291 270 215 188 335 109 139 153 226 154 133 120 121 147 162 145 96 92 145 139 142 159 178 192 218 231 206 265 275 238 202 172 153 142 119 102 137 175 175 178 209 204 229
338 340 343 344 343 344 347 347 350 355 354 347 335 305 218 81 10 351 347 333 347 358 356 8 353 320 319 314 289 282 280 291 303 294 293 283 261 233 204 239 235 244 252 245 263 275 270 206 189 179 170 185 186 158 126 125 146 150 151 136 99 90 326 229 160 176 199 196 216 243 233 234 262 255 211 186 164 142 130 152 191 153 133 230 247 192 181
337 340 342 343 343 345 347 346 348 353 352 345 330 279 244 299 304 13 23 322 338 359 327 326 324 312 313 305 282 286 281 280 295 293 296 298 274 240 288 256 218 209 223 238 283 286 288 264 224 184 117 135 144 102 32 135 166 144 116 93 103 108 224 237 183 216 249 220 224 253 266 265 289 290 211 183 168 166 171 186 184 148 149 226 221 174 185
337 340 340 342 344 345 346 348 350 353 354 349 321 257 302 340 307 350 17 338 281 289 294 304 312 310 315 307 284 290 291 292 303 292 299 315 293 220 241 277 271 257 201 154 187 244 224 264 255 176 157 143 135 114 11 293 220 111 101 117 111 112 212 230 187 234 293 290 289 325 350 327 314 310 234 183 174 183 188 184 173 166 179 207 173 169 197
336 338 339 341 343 343 346 351 352 354 360 0 333 315 7 1 311 334 356 303 272 275 293 311 317 310 313 296 276 292 319 335 335 319 296 306 311 312 339 333 341 331 307 127 126 256 188 221 269 212 150 153 162 164 180 214 272 84 122 205 83 103 216 239 137 85 307 309 331 344 346 352 346 327 288 190 175 192 206 164 159 171 207 109 129 152 221
335 335 339 342 343 342 344 352 356 358 4 7 355 3 4 327 307 330 342 277 292 297 303 325 324 303 311 323 310 317 330 339 337 321 292 287 314 26 47 3 2 351 3 54 7 315 63 96 273 246 208 212 203 196 174 170 172 143 150 178 102 111 173 329 77 65 296 301 352 342 337 19 21 347 334 128 148 162 174 93 133 158 148 114 117 146 224
332 333 338 340 342 341 342 352 358 360 8 16 7 341 352 346 326 338 36 242 304 324 317 321 314 288 318 337 328 320 317 326 345 339 319 328 334 17 86 51 27 10 18 27 335 301 259 124 213 233 217 179 201 215 180 164 163 160 150 150 142 129 126 116 95 94 269 284 20 29 18 26 358 291 275 124 112 97 68 49 43 107 135 134 155 197 207
329 328 334 336 337 339 340 347 355 359 9 18 8 314 334 350 328 325 51 178 292 333 341 315 312 317 328 332 327 320 325 336 360 18 326 322 327 345 66 63 50 10 354 327 295 282 241 195 176 56 39 43 35 303 211 181 171 160 144 132 145 122 115 141 138 118 265 287 4 45 37 26 263 245 208 147 118 102 88 58 15 5 76 119 146 171 166
328 323 328 332 333 336 337 339 349 355 360 4 353 310 316 340 322 300 83 113 283 328 334 291 302 316 318 324 325 324 333 337 339 357 343 312 313 339 33 41 27 339 301 290 319 322 284 263 33 27 11 12 19 9 280 233 236 201 152 136 148 147 125 142 139 118 195 295 39 41 329 234 245 267 325 105 110 107 95 63 25 15 78 112 118 136 156
327 320 322 328 328 331 334 333 340 348 347 346 342 322 317 334 320 276 118 113 257 290 325 301 301 307 313 325 326 319 326 327 321 351 8 340 341 4 18 22 7 323 307 328 21 31 14 350 17 17 354 353 5 12 355 304 270 237 201 154 148 153 147 143 132 125 137 64 77 126 243 258 297 318 127 128 113 105 91 56 13 342 80 134 131 145 170
328 320 318 323 324 327 330 325 330 342 338 333 332 325 318 320 302 289 354 72 240 275 329 305 302 314 320 324 324 318 323 332 335 352 9 353 355 9 9 359 335 313 313 14 38 42 56 23 18 12 354 360 6 345 319 319 14 24 245 219 158 145 149 140 130 153 135 122 154 229 303 325 332 329 229 174 161 144 120 96 346 310 268 165 141 152 201
327 323 318 318 322 326 324 318 326 336 332 327 325 320 310 295 283 284 288 94 286 290 253 219 294 335 327 317 319 323 327 335 336 334 341 348 355 6 0 341 326 328 356 66 62 44 64 62 49 31 358 20 16 299 299 310 353 27 316 216 127 122 158 159 152 175 108 102 106 5 22 325 276 274 293 324 129 139 124 106 337 294 240 174 146 162 205
321 320 317 315 318 323 320 317 327 329 322 319 322 320 309 272 269 279 265 204 109 257 239 200 348 322 301 300 316 329 334 333 325 321 339 357 355 354 348 338 337 351 14 51 86 64 63 78 97 115 194 176 190 277 298 298 305 351 43 67 70 65 68 114 114 105 92 104 120 156 156 233 247 253 312 346 77 121 93 69 323 270 226 183 156 171 203
316 312 311 310 312 317 316 312 319 324 317 316 321 321 307 224 279 307 281 189 122 250 271 327 339 311 297 325 325 327 338 331 323 327 330 329 343 350 346 342 349 1 11 16 42 67 71 86 90 94 227 235 135 242 287 295 282 304 0 47 66 65 52 63 80 83 105 112 129 195 193 223 240 249 288 295 263 83 69 42 275 250 207 186 169 177 200
313 308 304 303 306 310 309 307 314 320 312 310 314 311 292 235 315 324 296 205 258 249 270 328 337 297 308 334 310 305 335 330 323 328 314 308 359 353 340 344 357 358 2 8 9 83 101 136 128 110 231 272 55 135 263 279 259 259 315 65 70 67 60 70 102 123 113 108 131 237 242 220 221 251 278 286 30 63 79 217 240 208 185 196 176 170 188
313 307 300 299 302 299 291 302 315 320 312 314 317 309 291 241 261 307 292 236 224 238 292 328 326 284 296 322 306 300 325 316 311 354 342 337 341 328 318 341 10 351 356 7 351 72 121 177 196 143 154 290 312 155 257 272 267 280 54 96 123 115 72 61 125 143 135 129 134 170 277 243 204 225 280 350 60 88 218 220 203 147 177 196 163 161 181
317 309 299 297 299 289 276 292 306 312 315 320 322 311 294 240 263 323 301 250 254 277 286 283 268 261 285 309 286 294 322 313 297 32 7 295 313 333 347 13 349 342 3 13 354 344 39 255 248 165 167 230 237 203 270 286 286 283 202 226 208 159 139 170 186 164 124 102 102 97 246 241 196 166 336 17 117 200 219 196 81 119 164 159 143 168 183
320 312 301 298 295 282 274 287 295 302 311 319 320 310 299 263 54 3 328 278 259 274 282 273 265 271 282 277 266 264 261 251 249 274 295 270 296 351 30 260 290 323 359 4 352 348 358 309 314 341 192 268 352 296 245 306 306 275 186 183 246 165 146 179 214 189 128 122 173 186 207 226 193 134 149 206 193 189 174 149 110 95 143 147 153 181 191
319 313 304 298 291 278 270 280 291 296 298 307 311 303 290 279 312 347 333 302 259 248 270 280 285 285 282 277 271 262 255 250 250 254 264 284 299 283 214 253 272 259 305 43 38 335 359 33 336 350 350 350 357 325 275 54 312 292 275 120 260 236 188 167 174 191 166 169 207 211 193 200 186 143 161 179 163 137 152 151 137 145 176 167 159 183 201
315 313 307 300 291 279 272 281 294 292 290 299 301 293 287 284 294 333 336 310 268 259 264 269 277 282 278 276 278 278 273 262 252 247 243 238 280 274 222 230 268 260 13 68 130 202 298 195 171 26 328 273 54 8 342 9 238 279 316 311 263 268 236 136 125 216 246 226 200 161 132 123 105 92 115 133 122 123 144 135 132 175 194 179 173 189 197
311 310 308 304 297 287 281 283 284 282 289 295 294 293 290 283 294 334 338 309 268 290 272 262 265 264 268 288 306 310 296 269 253 254 247 230 231 303 273 223 212 13 331 288 188 135 82 247 189 94 217 251 80 69 334 319 272 258 332 335 311 316 348 59 87 150 213 276 351 89 113 122 115 97 94 107 111 119 140 140 154 182 183 181 187 181 169
303 307 308 300 298 299 290 281 280 287 297 299 296 297 294 278 275 324 325 294 262 304 305 282 261 271 300 314 311 303 294 285 286 287 268 236 220 225 251 248 237 237 255 250 70 54 27 293 352 88 199 246 261 164 170 286 296 275 60 305 282 293 11 48 62 120 150 179 26 75 79 70 74 89 103 118 112 105 121 146 160 159 147 158 177 160 152
296 299 306 298 294 296 290 283 287 291 295 298 295 292 286 276 267 271 286 290 270 230 264 283 273 302 329 326 308 302 305 304 303 304 295 267 238 226 230 244 245 234 207 117 94 109 189 199 166 168 208 240 257 184 197 250 277 337 331 246 236 189 24 239 138 82 78 90 108 93 76 43 22 43 72 123 117 106 114 139 148 141 132 135 151 159 158
290 286 297 297 289 284 281 283 286 286 290 296 294 287 280 277 269 250 254 274 278 227 260 264 279 314 323 310 300 305 312 310 307 304 301 293 260 227 221 222 222 227 218 82 42 173 152 171 218 200 206 248 288 285 253 246 247 40 275 266 264 71 26 227 109 96 112 190 192 148 115 105 200 105 76 92 112 110 114 133 146 144 147 151 146 134 127
292 285 295 297 288 275 269 273 278 284 293 299 297 288 278 270 258 238 234 246 254 270 295 282 290 307 309 299 301 308 308 305 305 298 293 292 261 214 206 199 189 197 183 163 192 155 158 203 228 215 213 234 269 276 258 238 211 210 246 259 239 162 185 176 136 155 207 220 211 176 133 137 194 194 109 86 107 109 112 129 144 139 150 161 154 143 133
305 300 303 306 299 278 270 275 281 287 297 304 307 302 289 272 248 224 216 225 245 265 296 302 286 289 298 301 306 309 307 305 303 295 292 292 272 230 214 194 179 176 160 153 160 173 199 217 210 212 223 197 205 283 280 216 216 235 234 233 228 208 190 169 153 155 194 220 200 166 131 133 170 168 119 96 106 108 105 103 103 93 100 130 144 151 149
313 308 311 317 305 288 286 289 292 298 306 317 326 316 301 315 150 195 195 212 248 261 277 308 286 286 302 299 295 296 301 305 304 295 290 288 275 253 237 220 201 174 158 150 155 177 214 248 228 230 235 187 177 242 249 207 237 260 249 238 236 217 174 165 159 149 148 170 170 139 120 127 136 120 91 81 92 107 102 79 71 86 89 99 109 120 139
311 308 315 320 307 298 300 299 298 298 293 297 331 335 257 74 99 160 172 193 247 254 251 266 271 289 295 269 258 280 293 295 294 287 278 269 261 248 231 219 205 175 172 174 176 188 201 221 248 273 292 207 151 179 193 199 249 276 273 263 252 217 182 178 173 152 138 135 122 103 108 124 123 98 85 79 83 98 99 77 84 100 98 96 101 102 119
304 307 315 316 310 306 302 296 295 290 274 257 246 248 258 263 185 161 151 147 273 247 248 273 279 302 296 270 277 289 288 281 274 269 256 243 246 250 233 212 194 183 178 165 156 205 204 190 203 249 266 233 159 160 203 207 227 251 259 258 240 204 199 189 175 155 142 134 121 107 113 149 156 130 135 134 105 100 103 98 101 104 101 97 96 95 101
298 303 309 313 315 313 306 299 291 280 273 270 264 260 261 260 232 197 191 300 298 265 241 265 279 274 271 286 297 298 293 282 267 240 220 218 212 216 223 205 175 177 183 170 174 218 209 177 179 223 253 231 154 147 226 225 220 238 257 253 175 142 142 124 102 123 147 150 141 141 160 177 159 129 129 125 111 106 111 113 108 102 97 95 94 97 104
294 297 300 308 313 311 307 305 292 281 282 283 274 268 265 255 224 207 209 234 275 286 268 269 281 273 287 321 312 305 321 331 301 233 245 250 199 178 196 189 72 157 203 195 196 224 218 176 171 191 251 244 145 169 234 241 234 241 264 267 215 138 118 107 102 127 176 187 121 126 142 139 123 116 117 113 111 111 110 111 110 103 95 96 101 110 114
296 294 293 295 298 297 297 291 279 279 282 267 266 284 310 296 213 197 197 200 188 34 250 222 210 264 308 340 299 298 324 333 299 235 247 280 324 151 153 77 49 237 215 179 179 213 211 190 175 180 213 203 183 210 230 239 247 249 247 237 209 142 120 144 168 181 192 157 117 120 129 128 125 128 128 122 122 119 110 109 113 111 108 111 113 113 114
298 295 296 297 296 295 295 277 245 239 247 252 277 318 343 167 172 179 190 199 212 274 268 289 218 221 237 289 275 308 338 336 300 300 317 322 342 348 64 90 104 247 226 97 166 223 224 212 177 184 211 204 204 225 220 206 221 237 235 221 199 172 167 182 177 158 136 127 127 131 135 132 131 132 132 131 133 127 120 118 117 117 119 124 123 117 114
299 298 301 306 305 294 275 240 222 228 226 181 65 63 109 128 131 153 180 204 246 255 260 322 268 236 216 238 262 319 348 325 309 350 359 5 327 327 33 84 120 276 358 30 224 206 185 187 163 186 218 220 216 225 222 208 215 227 226 218 206 187 179 176 151 129 119 121 127 130 129 128 131 137 140 142 143 137 134 133 133 133 134 133 131 128 124
299 303 299 297 301 286 237 196 237 258 243 171 115 119 136 124 112 139 162 180 229 221 193 235 248 230 195 243 260 309 334 317 343 359 334 295 319 329 11 68 92 301 351 302 243 193 114 51 200 208 237 245 229 228 231 226 229 233 222 212 204 182 169 163 144 133 131 133 141 144 140 138 147 154 152 149 149 146 143 139 136 137 136 134 135 134 129
294 302 286 259 246 255 293 358 354 291 226 202 224 257 208 141 160 200 174 174 206 196 176 223 233 196 182 222 258 275 251 256 346 329 283 284 4 342 357 18 318 305 2 282 256 203 156 287 260 227 244 251 234 232 234 231 234 241 229 207 179 153 162 172 159 153 159 168 173 172 165 159 161 163 157 151 146 140 139 139 138 139 139 138 137 135 131
262 265 253 234 246 279 302 328 349 105 175 180 207 239 222 171 179 186 166 179 202 198 191 212 224 194 187 207 247 261 219 196 196 225 222 221 276 210 121 55 296 111 129 258 252 189 168 226 239 228 238 240 232 232 232 228 230 234 225 201 169 159 174 189 184 174 170 167 169 172 167 157 155 155 153 153 151 148 149 151 148 145 142 139 138 138 137
255 253 261 296 306 302 304 315 333 153 178 212 208 204 219 207 203 210 191 191 215 228 203 188 198 217 203 197 212 245 236 220 205 175 145 134 300 93 103 113 286 72 220 246 242 127 123 205 234 239 237 232 234 238 233 226 228 228 217 201 179 169 174 184 187 179 163 148 153 167 161 152 149 151 154 155 154 153 154 153 149 149 147 144 144 144 142
289 293 297 303 303 298 296 302 196 169 197 266 171 219 233 205 201 221 211 202 219 230 205 186 196 213 196 177 180 214 245 250 245 108 98 5 301 55 112 135 32 82 241 246 219 91 119 231 248 254 247 238 240 242 230 220 221 217 208 199 185 168 167 176 183 180 169 161 161 165 159 156 155 156 156 155 152 153 155 155 153 152 150 147 146 146 144
297 292 293 299 297 281 258 221 182 186 169 108 110 299 292 259 224 217 218 228 241 239 229 233 239 231 127 150 173 207 248 264 299 72 106 164 276 43 85 87 134 222 239 257 79 114 201 229 239 249 254 256 253 243 230 220 216 211 206 198 182 169 170 175 180 180 176 171 167 165 163 161 160 159 158 155 151 151 155 156 155 152 148 146 146 147 147
318 296 266 262 255 226 168 316 215 189 171 152 149 173 235 250 237 215 223 244 256 233 253 261 226 124 35 296 210 189 286 289 339 41 91 161 152 100 128 199 233 231 232 15 5 219 224 231 239 246 253 259 257 249 238 224 211 205 203 193 176 171 173 172 168 167 170 168 166 165 163 159 156 156 156 155 153 152 152 154 154 152 148 147 147 148 149
333 263 166 307 294 275 95 26 257 212 188 192 194 196 216 231 226 213 225 240 207 189 266 279 135 125 163 267 296 34 342 333 358 7 245 177 94 176 205 222 240 268 37 275 253 248 247 252 256 258 254 249 247 247 241 225 205 188 175 171 172 173 170 164 159 158 160 163 164 161 158 155 154 156 158 159 159 157 155 156 156 153 150 149 150 151 153
291 244 120 91 293 280 162 164 251 207 184 205 210 206 215 231 236 233 236 248 121 186 236 253 106 112 150 205 106 63 43 21 350 291 219 115 152 238 233 216 318 10 296 248 245 248 249 250 257 268 261 246 236 235 221 199 186 169 158 165 178 179 168 159 158 161 165 169 167 160 156 158 160 159 158 159 160 160 159 159 159 157 155 154 155 156 158
275 284 126 145 253 269 226 207 235 244 239 233 223 222 229 239 246 253 272 303 217 222 218 175 101 96 135 144 108 111 165 163 207 258 187 112 207 278 341 31 244 220 211 228 240 245 248 255 271 288 280 251 212 28 25 95 160 169 167 167 173 174 165 159 161 164 167 170 169 162 159 163 164 160 157 159 162 163 163 162 161 161 161 160 160 159 160
260 263 201 195 222 234 218 222 247 265 275 287 280 266 270 279 240 263 290 302 290 150 98 96 84 36 358 16 75 126 183 185 249 261 217 107 79 341 10 355 248 238 214 223 246 263 285 304 315 316 310 296 129 58 10 46 143 160 169 169 169 169 168 168 171 170 170 173 174 168 163 164 165 162 159 158 162 165 164 164 164 164 163 161 161 161 162
260 263 223 222 249 266 258 253 260 272 286 303 314 315 332 353 292 250 267 309 76 88 85 101 110 114 268 311 57 72 228 226 215 244 268 98 135 215 216 214 234 251 260 252 256 275 294 309 337 341 328 315 292 198 236 263 130 143 177 193 184 175 173 178 178 174 172 175 176 170 165 166 167 164 160 158 162 166 167 165 164 165 166 166 165 165 167
231 234 236 235 261 289 295 297 306 312 322 334 338 327 314 293 274 276 301 24 91 84 53 47 58 76 72 9 44 33 258 235 177 158 191 206 197 202 215 223 226 224 224 231 238 249 269 285 355 15 338 315 304 287 261 265 217 208 232 225 204 189 187 187 181 174 173 177 180 176 169 165 165 166 164 163 164 165 166 165 165 166 170 172 171 169 170
226 233 235 235 245 272 301 321 325 311 305 308 307 293 262 246 262 273 292 10 42 61 71 61 10 33 49 55 79 203 249 253 147 165 198 211 198 185 199 225 234 228 223 229 234 230 235 242 199 124 305 294 292 294 311 332 324 297 280 256 221 202 193 188 184 178 176 179 181 176 159 144 146 159 168 167 162 159 161 166 168 168 170 173 174 174 175
212 219 241 240 239 245 259 270 273 268 267 273 276 266 245 257 269 261 205 91 74 88 126 144 98 80 94 212 235 200 127 172 205 206 214 226 223 198 196 213 231 231 222 228 240 240 234 228 210 189 213 252 265 281 308 320 312 303 298 276 239 208 188 182 183 179 172 170 171 163 145 137 143 150 156 161 163 162 162 168 171 170 170 173 176 177 178